Starlink 11734

operational
NORAD ID: 64329 Int'l Des: 2025-124 Owner: SPXS Country: US Constellation: starlink
LEOCIRCULAR

关于 Starlink 11734

正在加载描述...

实时位置

正在加载3D地球...

即将过境

高度历史

Altitude vs Time

uPlot chart will show altitude changes over time

两行轨道根数

1 64329U 25124N 26095.42130756 .00268304 00000-0 20268-2 0 9991
2 64329 43.0008 227.6284 0002496 282.5097 77.5492 15.70849442 47049
Epoch: Apr 5, 2026 • Age: 8 hours

当前状态

高度 355.8 km
速度 7.70 km/s
星下点 6.55°N, 72.52°W
发射日期 Jun 10, 2025
运行时间 0.8 years
类型 internet

技术详情

分类 Payload
质量 960.00 kg
干质量 910.00 kg
总质量 960.00 kg
长度 0.30 m
直径 4.10 m
跨度 29.00 m
形状 Box + pan
制造商 SPXS
平台类型 Starlink V2MD
阶段状态 In Orbit
所有者/国家 SPXS/US

大型星座

Loading constellations...